"Sample Date","Sample Time","Sample Value","Units","Flow Rate","Laser Status","Micron Size 0","Counts/Channel 0","Micron Size 1","Counts/Channel 1","Micron Size 2","Counts/Channel 2","Micron Size 3","Counts/Channel 3","Micron Size 4","Counts/Channel 4","Micron Size 5","Counts/Channel 5","Micron Size 6","Counts/Channel 6","Micron Size 7","Counts/Channel 7","Micron Size 8","Counts/Channel 8","Micron Size 9","Counts/Channel 9","Micron Size 10","Counts/Channel 10","Micron Size 11","Counts/Channel 11","Micron Size 12","Counts/Channel 12","Micron Size 13","Counts/Channel 13","Micron Size 14","Counts/Channel 14","Micron Size 15","Counts/Channel 15","Micron Size 16","Counts/Channel 16","Micron Size 17","Counts/Channel 17","Micron Size 18","Counts/Channel 18","Micron Size 19","Counts/Channel 19","Micron Size 20","Counts/Channel 20","Micron Size 21","Counts/Channel 21","Micron Size 22","Counts/Channel 22","Micron Size 23","Counts/Channel 23","Micron Size 24","Counts/Channel 24","Micron Size 25","Counts/Channel 25","Micron Size 26","Counts/Channel 26","Micron Size 27","Counts/Channel 27","Micron Size 28","Counts/Channel 28","Micron Size 29","Counts/Channel 29","Micron Size 30","Counts/Channel 30","Micron Size 31","Counts/Channel 31"
"03/01/08","10:00:05",14599.000,"cc",28300.170,1,0.100,11378.000,0.200,1154.000,0.300,845.000,0.500,853.000,1.000,368.000,5.000,1.000
"03/01/08","10:00:11",18939.000,"cc",28339.336,1,0.100,13659.000,0.200,2063.000,0.300,1354.000,0.500,1380.000,1.000,483.000,5.000,0
"03/01/08","10:00:17",30504.000,"cc",28296.981,1,0.100,24395.000,0.200,3436.000,0.300,1163.000,0.500,1101.000,1.000,409.000,5.000,0
"03/01/08","10:00:23",23395.000,"cc",28277.506,1,0.100,18215.000,0.200,2563.000,0.300,1134.000,0.500,1078.000,1.000,405.000,5.000,0
"03/01/08","10:00:29",30153.000,"cc",28352.348,1,0.100,23946.000,0.200,3433.000,0.300,1225.000,0.500,1121.000,1.000,428.000,5.000,0
"03/01/08","10:00:35",31230.000,"cc",28323.344,1,0.100,21136.000,0.200,4476.000,0.300,2556.000,0.500,2228.000,1.000,834.000,5.000,0
"03/01/08","10:00:41",42651.000,"cc",28303.764,1,0.100,32435.000,0.200,5603.000,0.300,2088.000,0.500,1852.000,1.000,673.000,5.000,0
"03/01/08","10:00:47",29041.000,"cc",28382.652,1,0.100,21714.000,0.200,3542.000,0.300,1613.000,0.500,1558.000,1.000,614.000,5.000,0
"03/01/08","10:00:53",18317.000,"cc",28335.545,1,0.100,14463.000,0.200,1695.000,0.300,879.000,0.500,913.000,1.000,367.000,5.000,0
"03/01/08","10:00:59",16268.000,"cc",28299.725,1,0.100,12618.000,0.200,1425.000,0.300,925.000,0.500,940.000,1.000,360.000,5.000,0
"03/01/08","10:01:05",17860.000,"cc",28293.936,1,0.100,13468.000,0.200,1744.000,0.300,1121.000,0.500,1103.000,1.000,424.000,5.000,0
"03/01/08","10:01:11",23418.000,"cc",28317.145,1,0.100,17674.000,0.200,2628.000,0.300,1302.000,0.500,1295.000,1.000,519.000,5.000,0
"03/01/08","10:01:17",23947.000,"cc",28327.666,1,0.100,16153.000,0.200,3108.000,0.300,1952.000,0.500,1981.000,1.000,753.000,5.000,0
"03/01/08","10:01:23",17564.000,"cc",28336.205,1,0.100,13279.000,0.200,1815.000,0.300,1076.000,0.500,1003.000,1.000,391.000,5.000,0
"03/01/08","10:01:29",14476.000,"cc",28300.365,1,0.100,11565.000,0.200,1268.000,0.300,671.000,0.500,699.000,1.000,273.000,5.000,0
"03/01/08","10:01:35",24007.000,"cc",28295.643,1,0.100,18729.000,0.200,2631.000,0.300,1161.000,0.500,1082.000,1.000,403.000,5.000,1.000
"03/01/08","10:01:41",24848.000,"cc",28392.397,1,0.100,18651.000,0.200,2917.000,0.300,1322.000,0.500,1428.000,1.000,530.000,5.000,0
"03/01/08","10:01:47",15896.000,"cc",28338.787,1,0.100,12499.000,0.200,1431.000,0.300,787.000,0.500,854.000,1.000,325.000,5.000,0
"03/01/08","10:01:53",18827.000,"cc",28304.576,1,0.100,14278.000,0.200,1963.000,0.300,1090.000,0.500,1095.000,1.000,401.000,5.000,0
"03/01/08","10:01:59",20377.000,"cc",28283.041,1,0.100,16359.000,0.200,2033.000,0.300,810.000,0.500,854.000,1.000,321.000,5.000,0
"03/01/08","10:02:05",22662.000,"cc",28316.463,1,0.100,16217.000,0.200,2721.000,0.300,1595.000,0.500,1535.000,1.000,594.000,5.000,0
"03/01/08","10:02:11",26558.000,"cc",28290.037,1,0.100,21910.000,0.200,2809.000,0.300,827.000,0.500,723.000,1.000,289.000,5.000,0
"03/01/08","10:02:17",15715.000,"cc",28379.711,1,0.100,12419.000,0.200,1356.000,0.300,799.000,0.500,816.000,1.000,325.000,5.000,0
"03/01/08","10:02:23",17086.000,"cc",28339.359,1,0.100,13406.000,0.200,1580.000,0.300,784.000,0.500,958.000,1.000,358.000,5.000,0
"03/01/08","10:02:29",17624.000,"cc",28205.082,1,0.100,12995.000,0.200,1960.000,0.300,1118.000,0.500,1136.000,1.000,415.000,5.000,0
"03/01/08","10:02:35",14907.000,"cc",28318.473,1,0.100,11585.000,0.200,1290.000,0.300,871.000,0.500,822.000,1.000,339.000,5.000,0
"03/01/08","10:02:41",13951.000,"cc",28361.191,1,0.100,11253.000,0.200,1003.000,0.300,658.000,0.500,734.000,1.000,303.000,5.000,0
"03/01/08","10:02:47",15655.000,"cc",28271.004,1,0.100,12119.000,0.200,1437.000,0.300,877.000,0.500,865.000,1.000,356.000,5.000,1.000
"03/01/08","10:02:53",15234.000,"cc",28313.797,1,0.100,11914.000,0.200,1310.000,0.300,833.000,0.500,834.000,1.000,343.000,5.000,0
"03/01/08","10:02:59",16328.000,"cc",28357.631,1,0.100,12648.000,0.200,1489.000,0.300,948.000,0.500,914.000,1.000,329.000,5.000,0
"03/01/08","10:03:05",18965.000,"cc",28272.172,1,0.100,14311.000,0.200,1997.000,0.300,1127.000,0.500,1106.000,1.000,424.000,5.000,0
"03/01/08","10:03:11",14739.000,"cc",28336.775,1,0.100,11764.000,0.200,1201.000,0.300,678.000,0.500,786.000,1.000,310.000,5.000,0
"03/01/08","10:03:17",16577.000,"cc",28375.736,1,0.100,12355.000,0.200,1561.000,0.300,1061.000,0.500,1146.000,1.000,454.000,5.000,0
"03/01/08","10:03:23",14898.000,"cc",28343.461,1,0.100,11645.000,0.200,1290.000,0.300,770.000,0.500,848.000,1.000,344.000,5.000,1.000
"03/01/08","10:03:29",18299.000,"cc",28340.098,1,0.100,13506.000,0.200,1938.000,0.300,1159.000,0.500,1243.000,1.000,453.000,5.000,0
"03/01/08","10:03:35",14557.000,"cc",28209.936,1,0.100,11564.000,0.200,1215.000,0.300,736.000,0.500,748.000,1.000,294.000,5.000,0
"03/01/08","10:03:41",17426.000,"cc",28289.238,1,0.100,12890.000,0.200,1734.000,0.300,1184.000,0.500,1206.000,1.000,412.000,5.000,0
"03/01/08","10:03:47",16999.000,"cc",28333.104,1,0.100,12309.000,0.200,1784.000,0.300,1204.000,0.500,1235.000,1.000,467.000,5.000,0
"03/01/08","10:03:53",21204.000,"cc",28310.160,1,0.100,14407.000,0.200,2654.000,0.300,1833.000,0.500,1670.000,1.000,640.000,5.000,0
"03/01/08","10:03:59",14106.000,"cc",28292.303,1,0.100,11056.000,0.200,1218.000,0.300,745.000,0.500,770.000,1.000,317.000,5.000,0
"03/01/08","10:04:05",17396.000,"cc",28340.045,1,0.100,12688.000,0.200,1903.000,0.300,1229.000,0.500,1136.000,1.000,440.000,5.000,0
"03/01/08","10:04:11",18983.000,"cc",28374.682,1,0.100,13781.000,0.200,2120.000,0.300,1286.000,0.500,1269.000,1.000,527.000,5.000,0
"03/01/08","10:04:17",20941.000,"cc",28326.668,1,0.100,14522.000,0.200,2659.000,0.300,1632.000,0.500,1544.000,1.000,584.000,5.000,0
"03/01/08","10:04:23",16701.000,"cc",28243.441,1,0.100,12631.000,0.200,1635.000,0.300,988.000,0.500,1045.000,1.000,402.000,5.000,0
"03/01/08","10:04:29",18271.000,"cc",28390.137,1,0.100,13287.000,0.200,1951.000,0.300,1259.000,0.500,1257.000,1.000,517.000,5.000,0
"03/01/08","10:04:35",13989.000,"cc",28318.613,1,0.100,10958.000,0.200,1199.000,0.300,724.000,0.500,774.000,1.000,334.000,5.000,0
"03/01/08","10:04:41",14678.000,"cc",28213.871,1,0.100,11572.000,0.200,1187.000,0.300,757.000,0.500,823.000,1.000,339.000,5.000,0
"03/01/08","10:04:47",20271.000,"cc",28301.479,1,0.100,14066.000,0.200,2418.000,0.300,1632.000,0.500,1561.000,1.000,594.000,5.000,0
"03/01/08","10:04:53",15508.000,"cc",28323.482,1,0.100,11751.000,0.200,1337.000,0.300,963.000,0.500,1044.000,1.000,413.000,5.000,0
"03/01/08","10:04:59",16932.000,"cc",28307.223,1,0.100,12526.000,0.200,1695.000,0.300,1173.000,0.500,1124.000,1.000,414.000,5.000,0
"03/01/08","10:05:05",15481.000,"cc",28333.719,1,0.100,11901.000,0.200,1429.000,0.300,924.000,0.500,911.000,1.000,316.000,5.000,0
"03/01/08","10:05:11",15266.000,"cc",28363.932,1,0.100,11580.000,0.200,1440.000,0.300,929.000,0.500,941.000,1.000,376.000,5.000,0
"03/01/08","10:05:17",14864.000,"cc",28331.100,1,0.100,11513.000,0.200,1249.000,0.300,829.000,0.500,893.000,1.000,380.000,5.000,0
"03/01/08","10:05:23",15343.000,"cc",28288.412,1,0.100,11390.000,0.200,1465.000,0.300,972.000,0.500,1089.000,1.000,427.000,5.000,0
"03/01/08","10:05:29",14069.000,"cc",28321.162,1,0.100,11001.000,0.200,1138.000,0.300,719.000,0.500,858.000,1.000,353.000,5.000,0
"03/01/08","10:05:35",15876.000,"cc",28420.846,1,0.100,12122.000,0.200,1507.000,0.300,922.000,0.500,966.000,1.000,359.000,5.000,0
"03/01/08","10:05:41",14297.000,"cc",28278.408,1,0.100,11330.000,0.200,1187.000,0.300,725.000,0.500,755.000,1.000,300.000,5.000,0
"03/01/08","10:05:47",16542.000,"cc",28303.197,1,0.100,12128.000,0.200,1712.000,0.300,1122.000,0.500,1139.000,1.000,441.000,5.000,0
"03/01/08","10:05:53",17532.000,"cc",28239.811,1,0.100,12892.000,0.200,1815.000,0.300,1213.000,0.500,1169.000,1.000,443.000,5.000,0
"03/01/08","10:05:59",20646.000,"cc",28281.498,1,0.100,14433.000,0.200,2417.000,0.300,1639.000,0.500,1540.000,1.000,617.000,5.000,0
"03/01/08","10:06:05",21046.000,"cc",28377.461,1,0.100,14189.000,0.200,2650.000,0.300,1844.000,0.500,1712.000,1.000,651.000,5.000,0
"03/01/08","10:06:11",28113.000,"cc",28314.082,1,0.100,17456.000,0.200,4235.000,0.300,2832.000,0.500,2564.000,1.000,1026.000,5.000,0
"03/01/08","10:06:17",15090.000,"cc",28348.744,1,0.100,11733.000,0.200,1260.000,0.300,815.000,0.500,941.000,1.000,341.000,5.000,0
"03/01/08","10:06:23",16262.000,"cc",28314.111,1,0.100,12195.000,0.200,1576.000,0.300,1058.000,0.500,1025.000,1.000,408.000,5.000,0
"03/01/08","10:06:29",24206.000,"cc",28311.305,1,0.100,15921.000,0.200,3349.000,0.300,2290.000,0.500,1936.000,1.000,710.000,5.000,0
"03/01/08","10:06:35",14803.000,"cc",28336.699,1,0.100,11361.000,0.200,1282.000,0.300,833.000,0.500,956.000,1.000,371.000,5.000,0
"03/01/08","10:06:41",23322.000,"cc",28268.164,1,0.100,15500.000,0.200,3137.000,0.300,2041.000,0.500,1901.000,1.000,743.000,5.000,0
"03/01/08","10:06:47",25909.000,"cc",28298.719,1,0.100,16909.000,0.200,3687.000,0.300,2361.000,0.500,2173.000,1.000,779.000,5.000,0
"03/01/08","10:06:53",22151.000,"cc",28283.617,1,0.100,15412.000,0.200,2853.000,0.300,1768.000,0.500,1528.000,1.000,590.000,5.000,0
"03/01/08","10:06:59",15062.000,"cc",28375.934,1,0.100,11846.000,0.200,1279.000,0.300,758.000,0.500,873.000,1.000,306.000,5.000,0
"03/01/08","10:07:05",15030.000,"cc",28300.750,1,0.100,11928.000,0.200,1239.000,0.300,735.000,0.500,812.000,1.000,316.000,5.000,0
"03/01/08","10:07:11",21735.000,"cc",28295.565,1,0.100,14455.000,0.200,2756.000,0.300,1903.000,0.500,1901.000,1.000,720.000,5.000,0
"03/01/08","10:07:17",21786.000,"cc",28347.080,1,0.100,14861.000,0.200,2738.000,0.300,1804.000,0.500,1721.000,1.000,662.000,5.000,0
"03/01/08","10:07:23",19442.000,"cc",28315.502,1,0.100,13807.000,0.200,2284.000,0.300,1444.000,0.500,1359.000,1.000,548.000,5.000,0
"03/01/08","10:07:29",14359.000,"cc",28355.674,1,0.100,11278.000,0.200,1144.000,0.300,738.000,0.500,853.000,1.000,346.000,5.000,0
"03/01/08","10:07:35",16041.000,"cc",28337.418,1,0.100,11986.000,0.200,1448.000,0.300,1035.000,0.500,1126.000,1.000,446.000,5.000,0
"03/01/08","10:07:41",14967.000,"cc",28321.035,1,0.100,11609.000,0.200,1293.000,0.300,793.000,0.500,904.000,1.000,368.000,5.000,0
"03/01/08","10:07:47",14524.000,"cc",28311.481,1,0.100,11519.000,0.200,1166.000,0.300,712.000,0.500,808.000,1.000,319.000,5.000,0
"03/01/08","10:07:53",16973.000,"cc",28382.768,1,0.100,12568.000,0.200,1695.000,0.300,1113.000,0.500,1122.000,1.000,475.000,5.000,0
"03/01/08","10:07:59",15411.000,"cc",28329.916,1,0.100,11730.000,0.200,1437.000,0.300,917.000,0.500,973.000,1.000,354.000,5.000,0
"03/01/08","10:08:05",16506.000,"cc",28297.514,1,0.100,12339.000,0.200,1667.000,0.300,1040.000,0.500,1046.000,1.000,414.000,5.000,0
"03/01/08","10:08:11",16133.000,"cc",28192.650,1,0.100,12586.000,0.200,1458.000,0.300,873.000,0.500,897.000,1.000,319.000,5.000,0
"03/01/08","10:08:17",23039.000,"cc",28343.815,1,0.100,15207.000,0.200,2927.000,0.300,2112.000,0.500,1990.000,1.000,803.000,5.000,0
"03/01/08","10:08:23",14155.000,"cc",28328.775,1,0.100,11192.000,0.200,1128.000,0.300,714.000,0.500,784.000,1.000,337.000,5.000,0
"03/01/08","10:08:29",20860.000,"cc",28303.803,1,0.100,14388.000,0.200,2542.000,0.300,1686.000,0.500,1608.000,1.000,636.000,5.000,0
"03/01/08","10:08:35",15911.000,"cc",28353.336,1,0.100,12607.000,0.200,1363.000,0.300,793.000,0.500,779.000,1.000,369.000,5.000,0
"03/01/08","10:08:41",15523.000,"cc",28304.053,1,0.100,11788.000,0.200,1395.000,0.300,931.000,0.500,1008.000,1.000,401.000,5.000,0
"03/01/08","10:08:47",17712.000,"cc",28363.041,1,0.100,13006.000,0.200,1836.000,0.300,1182.000,0.500,1244.000,1.000,444.000,5.000,0
"03/01/08","10:08:53",15792.000,"cc",28310.111,1,0.100,12191.000,0.200,1391.000,0.300,899.000,0.500,961.000,1.000,350.000,5.000,0
"03/01/08","10:08:59",15826.000,"cc",28294.537,1,0.100,12117.000,0.200,1524.000,0.300,901.000,0.500,921.000,1.000,363.000,5.000,0
"03/01/08","10:09:05",14676.000,"cc",28319.570,1,0.100,11450.000,0.200,1158.000,0.300,808.000,0.500,917.000,1.000,343.000,5.000,0
"03/01/08","10:09:11",15345.000,"cc",28319.902,1,0.100,11723.000,0.200,1295.000,0.300,894.000,0.500,1028.000,1.000,405.000,5.000,0
"03/01/08","10:09:17",13790.000,"cc",28305.508,1,0.100,11005.000,0.200,1077.000,0.300,655.000,0.500,738.000,1.000,315.000,5.000,0
"03/01/08","10:09:23",18924.000,"cc",28286.859,1,0.100,13269.000,0.200,2156.000,0.300,1445.000,0.500,1489.000,1.000,565.000,5.000,0
"03/01/08","10:09:29",16959.000,"cc",28338.818,1,0.100,12478.000,0.200,1693.000,0.300,1158.000,0.500,1167.000,1.000,463.000,5.000,0
"03/01/08","10:09:35",14197.000,"cc",28368.670,1,0.100,11113.000,0.200,1122.000,0.300,761.000,0.500,860.000,1.000,341.000,5.000,0
"03/01/08","10:09:41",15880.000,"cc",28238.969,1,0.100,12205.000,0.200,1438.000,0.300,927.000,0.500,929.000,1.000,381.000,5.000,0
"03/01/08","10:09:47",18094.000,"cc",28283.338,1,0.100,13004.000,0.200,1957.000,0.300,1326.000,0.500,1274.000,1.000,533.000,5.000,0
"03/01/08","10:09:53",16935.000,"cc",28377.969,1,0.100,12581.000,0.200,1664.000,0.300,1096.000,0.500,1167.000,1.000,427.000,5.000,0
"03/01/08","10:09:59",13793.000,"cc",28340.016,1,0.100,10978.000,0.200,1006.000,0.300,687.000,0.500,806.000,1.000,316.000,5.000,0
"03/01/08","10:10:05",13839.000,"cc",28299.313,1,0.100,10978.000,0.200,1021.000,0.300,710.000,0.500,765.000,1.000,365.000,5.000,0
"03/01/08","10:10:11",18301.000,"cc",28311.551,1,0.100,13080.000,0.200,2019.000,0.300,1442.000,0.500,1253.000,1.000,507.000,5.000,0
"03/01/08","10:10:17",14666.000,"cc",28223.490,1,0.100,11356.000,0.200,1250.000,0.300,764.000,0.500,935.000,1.000,361.000,5.000,0
"03/01/08","10:10:23",13541.000,"cc",28372.098,1,0.100,10760.000,0.200,997.000,0.300,687.000,0.500,782.000,1.000,315.000,5.000,0
"03/01/08","10:10:29",19164.000,"cc",28321.982,1,0.100,13399.000,0.200,2185.000,0.300,1551.000,0.500,1463.000,1.000,566.000,5.000,0
"03/01/08","10:10:35",14949.000,"cc",28348.023,1,0.100,11526.000,0.200,1270.000,0.300,874.000,0.500,932.000,1.000,347.000,5.000,0
"03/01/08","10:10:41",22081.000,"cc",28336.178,1,0.100,14924.000,0.200,2913.000,0.300,1887.000,0.500,1669.000,1.000,688.000,5.000,0
"03/01/08","10:10:47",19366.000,"cc",28341.453,1,0.100,13479.000,0.200,2202.000,0.300,1522.000,0.500,1560.000,1.000,603.000,5.000,0
"03/01/08","10:10:53",14125.000,"cc",28300.014,1,0.100,11192.000,0.200,1103.000,0.300,684.000,0.500,810.000,1.000,336.000,5.000,0
"03/01/08","10:10:59",14459.000,"cc",28234.248,1,0.100,11278.000,0.200,1157.000,0.300,759.000,0.500,873.000,1.000,392.000,5.000,0
"03/01/08","10:11:05",14177.000,"cc",28352.996,1,0.100,10899.000,0.200,1170.000,0.300,791.000,0.500,922.000,1.000,395.000,5.000,0
"03/01/08","10:11:11",15193.000,"cc",28340.127,1,0.100,11363.000,0.200,1426.000,0.300,957.000,0.500,1053.000,1.000,394.000,5.000,0
"03/01/08","10:11:17",13757.000,"cc",28333.877,1,0.100,10656.000,0.200,1078.000,0.300,766.000,0.500,908.000,1.000,349.000,5.000,0
"03/01/08","10:11:23",13924.000,"cc",28282.516,1,0.100,10889.000,0.200,1065.000,0.300,742.000,0.500,897.000,1.000,331.000,5.000,0
"03/01/08","10:11:29",16251.000,"cc",28321.090,1,0.100,12141.000,0.200,1534.000,0.300,1101.000,0.500,1047.000,1.000,428.000,5.000,0
"03/01/08","10:11:35",14428.000,"cc",28352.096,1,0.100,11180.000,0.200,1179.000,0.300,820.000,0.500,897.000,1.000,352.000,5.000,0
"03/01/08","10:11:41",13677.000,"cc",28327.617,1,0.100,10747.000,0.200,1010.000,0.300,705.000,0.500,876.000,1.000,339.000,5.000,0
"03/01/08","10:11:47",15145.000,"cc",28361.375,1,0.100,11313.000,0.200,1352.000,0.300,961.000,0.500,1070.000,1.000,449.000,5.000,0
"03/01/08","10:11:53",16443.000,"cc",28300.086,1,0.100,11995.000,0.200,1657.000,0.300,1170.000,0.500,1135.000,1.000,486.000,5.000,0
"03/01/08","10:11:59",14025.000,"cc",28260.381,1,0.100,10791.000,0.200,1092.000,0.300,832.000,0.500,909.000,1.000,401.000,5.000,0
"03/01/08","10:12:05",13586.000,"cc",28347.322,1,0.100,10718.000,0.200,969.000,0.300,732.000,0.500,818.000,1.000,349.000,5.000,0
"03/01/08","10:12:11",19651.000,"cc",28358.125,1,0.100,13619.000,0.200,2421.000,0.300,1567.000,0.500,1488.000,1.000,556.000,5.000,0
"03/01/08","10:12:17",16771.000,"cc",28261.020,1,0.100,12154.000,0.200,1806.000,0.300,1213.000,0.500,1157.000,1.000,441.000,5.000,0
"03/01/08","10:12:23",15267.000,"cc",28220.883,1,0.100,11441.000,0.200,1378.000,0.300,977.000,0.500,1057.000,1.000,414.000,5.000,0
"03/01/08","10:12:29",14960.000,"cc",28388.438,1,0.100,11353.000,0.200,1273.000,0.300,958.000,0.500,998.000,1.000,378.000,5.000,0
"03/01/08","10:12:35",13646.000,"cc",28329.039,1,0.100,10619.000,0.200,1055.000,0.300,776.000,0.500,821.000,1.000,375.000,5.000,0
"03/01/08","10:12:41",13723.000,"cc",28355.277,1,0.100,10767.000,0.200,1011.000,0.300,707.000,0.500,864.000,1.000,374.000,5.000,0
"03/01/08","10:12:47",13546.000,"cc",28325.752,1,0.100,10504.000,0.200,1053.000,0.300,765.000,0.500,867.000,1.000,357.000,5.000,0
"03/01/08","10:12:53",15447.000,"cc",28191.879,1,0.100,11313.000,0.200,1489.000,0.300,1059.000,0.500,1173.000,1.000,413.000,5.000,0
"03/01/08","10:12:59",16046.000,"cc",28341.600,1,0.100,11714.000,0.200,1598.000,0.300,1142.000,0.500,1175.000,1.000,417.000,5.000,0
"03/01/08","10:13:05",12801.000,"cc",28288.867,1,0.100,10213.000,0.200,867.000,0.300,649.000,0.500,761.000,1.000,311.000,5.000,0
"03/01/08","10:13:11",15116.000,"cc",28267.303,1,0.100,11294.000,0.200,1341.000,0.300,981.000,0.500,1070.000,1.000,430.000,5.000,0
"03/01/08","10:13:17",22399.000,"cc",28416.609,1,0.100,14990.000,0.200,2989.000,0.300,1988.000,0.500,1776.000,1.000,656.000,5.000,0
"03/01/08","10:13:23",13821.000,"cc",28320.238,1,0.100,10692.000,0.200,1025.000,0.300,764.000,0.500,935.000,1.000,405.000,5.000,0
"03/01/08","10:13:29",19484.000,"cc",28298.510,1,0.100,13551.000,0.200,2297.000,0.300,1627.000,0.500,1481.000,1.000,528.000,5.000,0
"03/01/08","10:13:35",14461.000,"cc",28319.539,1,0.100,11130.000,0.200,1206.000,0.300,881.000,0.500,891.000,1.000,353.000,5.000,0
"03/01/08","10:13:41",14742.000,"cc",28291.875,1,0.100,11120.000,0.200,1299.000,0.300,943.000,0.500,973.000,1.000,407.000,5.000,0
"03/01/08","10:13:47",16363.000,"cc",28313.912,1,0.100,11921.000,0.200,1700.000,0.300,1175.000,0.500,1129.000,1.000,438.000,5.000,0
"03/01/08","10:13:53",15227.000,"cc",28325.527,1,0.100,11386.000,0.200,1399.000,0.300,965.000,0.500,1075.000,1.000,402.000,5.000,0
"03/01/08","10:13:59",13162.000,"cc",28308.447,1,0.100,10398.000,0.200,895.000,0.300,690.000,0.500,818.000,1.000,361.000,5.000,0
"03/01/08","10:14:05",12995.000,"cc",28294.615,1,0.100,10229.000,0.200,922.000,0.300,668.000,0.500,804.000,1.000,372.000,5.000,0
"03/01/08","10:14:11",14531.000,"cc",28354.639,1,0.100,11013.000,0.200,1242.000,0.300,917.000,0.500,960.000,1.000,399.000,5.000,0
"03/01/08","10:14:17",15725.000,"cc",28284.049,1,0.100,11745.000,0.200,1453.000,0.300,1066.000,0.500,1068.000,1.000,393.000,5.000,0
"03/01/08","10:14:23",13507.000,"cc",28315.086,1,0.100,10461.000,0.200,1036.000,0.300,815.000,0.500,853.000,1.000,342.000,5.000,0
"03/01/08","10:14:29",14646.000,"cc",28369.834,1,0.100,11093.000,0.200,1249.000,0.300,877.000,0.500,1010.000,1.000,417.000,5.000,0
"03/01/08","10:14:35",13097.000,"cc",28313.232,1,0.100,10366.000,0.200,945.000,0.300,698.000,0.500,765.000,1.000,323.000,5.000,0
"03/01/08","10:14:41",13662.000,"cc",28351.561,1,0.100,10597.000,0.200,1084.000,0.300,782.000,0.500,857.000,1.000,342.000,5.000,0
"03/01/08","10:14:47",13882.000,"cc",28333.902,1,0.100,10713.000,0.200,1053.000,0.300,823.000,0.500,919.000,1.000,374.000,5.000,0
"03/01/08","10:14:53",14963.000,"cc",28276.139,1,0.100,11199.000,0.200,1327.000,0.300,870.000,0.500,1092.000,1.000,474.000,5.000,1.000
"03/01/08","10:14:59",12781.000,"cc",28257.221,1,0.100,10157.000,0.200,875.000,0.300,699.000,0.500,728.000,1.000,322.000,5.000,0
"03/01/08","10:15:05",13980.000,"cc",28310.815,1,0.100,10834.000,0.200,1138.000,0.300,831.000,0.500,824.000,1.000,353.000,5.000,0
"03/01/08","10:15:11",15418.000,"cc",28350.184,1,0.100,11473.000,0.200,1419.000,0.300,990.000,0.500,1086.000,1.000,450.000,5.000,0
"03/01/08","10:15:17",13568.000,"cc",28283.975,1,0.100,10649.000,0.200,1015.000,0.300,710.000,0.500,843.000,1.000,351.000,5.000,0
"03/01/08","10:15:23",13708.000,"cc",28272.344,1,0.100,10672.000,0.200,1068.000,0.300,817.000,0.500,819.000,1.000,332.000,5.000,0
"03/01/08","10:15:29",14591.000,"cc",28404.207,1,0.100,10971.000,0.200,1279.000,0.300,962.000,0.500,1002.000,1.000,377.000,5.000,0
"03/01/08","10:15:35",14845.000,"cc",28282.545,1,0.100,11157.000,0.200,1270.000,0.300,989.000,0.500,1047.000,1.000,382.000,5.000,0
"03/01/08","10:15:41",13627.000,"cc",28319.371,1,0.100,10622.000,0.200,1035.000,0.300,735.000,0.500,884.000,1.000,351.000,5.000,0
"03/01/08","10:15:47",13377.000,"cc",28392.695,1,0.100,10418.000,0.200,962.000,0.300,766.000,0.500,836.000,1.000,395.000,5.000,0
"03/01/08","10:15:53",13546.000,"cc",28337.022,1,0.100,10512.000,0.200,1000.000,0.300,793.000,0.500,873.000,1.000,368.000,5.000,0
"03/01/08","10:15:59",14606.000,"cc",28322.758,1,0.100,11139.000,0.200,1182.000,0.300,916.000,0.500,983.000,1.000,386.000,5.000,0
"03/01/08","10:16:05",14115.000,"cc",28240.115,1,0.100,10881.000,0.200,1159.000,0.300,797.000,0.500,886.000,1.000,392.000,5.000,0
"03/01/08","10:16:11",13727.000,"cc",28337.055,1,0.100,10777.000,0.200,998.000,0.300,742.000,0.500,862.000,1.000,348.000,5.000,0
"03/01/08","10:16:17",14060.000,"cc",28277.123,1,0.100,10725.000,0.200,1147.000,0.300,865.000,0.500,942.000,1.000,381.000,5.000,0
"03/01/08","10:16:23",14334.000,"cc",28293.627,1,0.100,10797.000,0.200,1221.000,0.300,929.000,0.500,970.000,1.000,417.000,5.000,0
"03/01/08","10:16:29",13554.000,"cc",28263.190,1,0.100,10537.000,0.200,1081.000,0.300,768.000,0.500,822.000,1.000,346.000,5.000,0
"03/01/08","10:16:35",12927.000,"cc",28357.576,1,0.100,10141.000,0.200,960.000,0.300,739.000,0.500,754.000,1.000,333.000,5.000,0
"03/01/08","10:16:41",12868.000,"cc",28422.266,1,0.100,10188.000,0.200,881.000,0.300,680.000,0.500,793.000,1.000,326.000,5.000,0
"03/01/08","10:16:47",15936.000,"cc",28364.527,1,0.100,11597.000,0.200,1631.000,0.300,1136.000,0.500,1148.000,1.000,424.000,5.000,0
"03/01/08","10:16:53",13499.000,"cc",28310.854,1,0.100,10478.000,0.200,1089.000,0.300,765.000,0.500,812.000,1.000,355.000,5.000,0
"03/01/08","10:16:59",13233.000,"cc",28267.973,1,0.100,10380.000,0.200,935.000,0.300,737.000,0.500,818.000,1.000,363.000,5.000,0
"03/01/08","10:17:05",16279.000,"cc",28315.453,1,0.100,11757.000,0.200,1581.000,0.300,1266.000,0.500,1207.000,1.000,468.000,5.000,0
"03/01/08","10:17:11",14138.000,"cc",28303.826,1,0.100,10811.000,0.200,1107.000,0.300,860.000,0.500,941.000,1.000,419.000,5.000,0